Regional Weather Roundup
Issued by NWS Sterling, VA

Home | Current Version | Previous Version | Text Only | Print | Product List | Glossary Off
Versions: 1 2 3 4 5 6 7 8 9 10 11 12 13 14 15 16 17 18 19 20 21 22 23 24 25 26 27 28 29 30 31 32 33 34 35 36 37 38 39 40 41 42 43 44 45 46 47 48 49 50

000
ASUS41 KLWX 020510
RWRLWX

REGIONAL WEATHER ROUNDUP
NATIONAL WEATHER SERVICE BALTIMORE MD/WASHINGTON DC
100 AM EDT THU OCT 02 2014

Note: "FAIR" indicates few or no clouds below 12,000 feet
with no significant weather and/or obstructions to visibility.
 TC=TEMPERATURE CELSIUS

 * =Non NWS site. Station does not report precipitation (e.g. rain,
    snow, etc.), thunder, or fog.

DCZ001-MDZ009-015-VAZ040>042-051-053>054-020600-
WASHINGTON METRO

CITY           SKY/WX    TMP DP  RH WIND       PRES   REMARKS
WASHINGTON NAT PTCLDY    66  60  81 NE6       30.07S
DULLES         PTCLDY    58  58 100 W5        30.08S
ANDREWS AFB    CLEAR     58  58  99 NE6       30.07S
QUANTICO       CLEAR     62  59  90 NW7       30.07S
COLLEGE PARK*  CLEAR     59  59 100 CALM      30.07S
LEESBURG*      MOCLDY    59  59 100 CALM      30.09R FOG
MANASSAS*      PTCLDY    59  59 100 CALM      30.07S
GAITHERSBURG*  PTCLDY    57  55  94 NE3       30.12S

$$

MDZ006>007-011-014-020600-
BALTIMORE METRO

CITY           SKY/WX    TMP DP  RH WIND       PRES   REMARKS
BWI AIRPORT    PTCLDY    60  58  92 CALM      30.08S
MD SCIENCE CTR   N/A     65  60  84 MISG      30.09R
MARTIN STATE   CLOUDY    64  61  88 CALM      30.09F
ANNAPOLIS      MOCLDY    66  60  81 CALM      30.07S
FORT MEADE*    CLOUDY    57  55  94 CALM      30.10S

$$

MDZ012-015-019>023-020600-
MARYLAND EASTERN SHORE

CITY           SKY/WX    TMP DP  RH WIND       PRES   REMARKS
OCEAN CITY     CLEAR     60  58  92 N3        30.05S
SALISBURY      CLEAR     61  57  87 NW3       30.06S
CAMBRIDGE*     MOCLDY    59  55  88 CALM      30.06S
EASTON*        CLOUDY    64  64 100 CALM      30.11S

$$

MDZ017>025-020600-
SOUTHERN MARYLAND

CITY           SKY/WX    TMP DP  RH WIND       PRES   REMARKS
PATUXENT RIVER CLEAR     57  55  93 CALM      30.06S
ST INIGOES     CLEAR     58  55  90 CALM      30.06R
LEONARDTOWN*   CLEAR     55  54  94 CALM      30.07S

$$

MDZ003>005-020600-
NORTH CENTRAL MARYLAND

CITY           SKY/WX    TMP DP  RH WIND       PRES   REMARKS
FREDERICK*     FOG       55  55 100 CALM      30.11S VSB 1/2
HAGERSTOWN APT PTCLDY    57  55  93 E6        30.09R FOG
WESTMINSTER*   CLEAR     57  55  94 CALM      30.09F FOG

$$

MDZ501>502-020600-
WESTERN MARYLAND

CITY           SKY/WX    TMP DP  RH WIND       PRES   REMARKS
OAKLAND*       CLOUDY    54 N/A N/A SE6       30.11F FOG
CUMBERLAND*    MOCLDY    57  57 100 CALM      30.12S

$$

VAZ025>031-020600-
SHENANDOAH VALLEY

CITY           SKY/WX    TMP DP  RH WIND       PRES   REMARKS
WINCHESTER*    CLOUDY    59  57  94 CALM      30.08R FOG
STAUNTON*      CLOUDY    63  61  91 CALM      30.10S FOG

$$

WVZ021-048>050-054>055-020600-
EASTERN WEST VIRGINIA PANHANDLE

CITY           SKY/WX    TMP DP  RH WIND       PRES   REMARKS
MARTINSBURG    PTCLDY    58  55  90 NE3       30.08S FOG
PETERSBURG*    CLOUDY   N/A N/A N/A CALM      30.09S FOG

$$

VAZ036>039-050-020600-
CENTRAL FOOTHILLS

CITY           SKY/WX    TMP DP  RH WIND       PRES   REMARKS
CHARLOTTESVILL CLOUDY    65  63  93 N3        30.08S
ORANGE*        CLOUDY    63  61  94 CALM      30.08F

$$

VAZ055>057-020600-
NORTH AND CENTRAL PIEDMONT

CITY           SKY/WX    TMP DP  RH WIND       PRES   REMARKS
FREDERICKSBRG* MOCLDY    62  62 100 CALM      30.06S
STAFFORD*      PTCLDY    59  59 100 CALM      30.10S

$$

NCZ024-NYZ072-PAZ021-071-VAZ022-071-020600-
OTHER REGIONAL OBSERVATIONS

CITY           SKY/WX    TMP DP  RH WIND       PRES   REMARKS
NEW YORK CITY  CLOUDY    62  56  80 NE6       30.10F
PHILADELPHIA   CLOUDY    65  58  78 NE6       30.08R
PITTSBURGH     CLEAR     54  53  97 CALM      30.05F FOG
ROANOKE        CLEAR     60  58  92 CALM      30.10R FOG
RICHMOND       CLOUDY    67  61  81 CALM      30.06S
RALEIGH        PTCLDY    61  59  93 CALM      30.06S

$$

ANZ530>537-020600-
MARINE OBSERVATIONS

STATION/POSITION TIME  TEMP    WIND        PRES
                       AIR SEA DIR/SP/G
                 (UTC) (F)     (DEG/KT/KT) (MB)
THOMAS PT LIGHT  0500   66 72   80/  7/  7 1019.3R
BALT KEY BRIDGE  0500   66      70/  7/  9 1018.2F
COVE POINT       0500   66     120/  9/ 11 1017.8R
LEWISETTA        0500   66 72  250/  1/  2 1017.4R
SOLOMONS ISLAND  0500      73                N/A
PINEY POINT      0500           70/  2/  3   N/A

$$




USA.gov is the U.S. government's official web portal to all federal, state and local government web resources and services.